QPF
0.00 0.00 0.00 0.00 0.00 0.00 0.00 0.00 0.00 0.00 0.00 0.00 0.00 0.00 0.00 0.00 0.01 0.01 0.00 0.00 0.00 0.00 0.00 0.00 0.00 0.00 0.00 0.00 0.00 0.01 0.02 0.02 0.02 0.02 0.02 0.01 0.01 0.00 0.00 0.00 0.00 0.00 0.00 0.00 0.00 0.00 0.00 0.00 0.00
0.00 0.00 0.00 0.00 0.00 0.00 0.00 0.00 0.00 0.00 0.00 0.00 0.00 0.00 0.00 0.00 0.00 0.00 0.00 0.00 0.00 0.00 0.00 0.00 0.00 0.00 0.00 0.00 0.00 0.01 0.01 0.01 0.01 0.01 0.01 0.01 0.00 0.00 0.00 0.00 0.00 0.00 0.00 0.00 0.00 0.00 0.00 0.00 0.00
0.00 0.00 0.00 0.00 0.00 0.00 0.00 0.00 0.00 0.00 0.00 0.01 0.01 0.00 0.00 0.00 0.00 0.00 0.00 0.00 0.00 0.00 0.00 0.00 0.01 0.00 0.00 0.00 0.01 0.01 0.01 0.01 0.01 0.01 0.01 0.00 0.00 0.00 0.00 0.00 0.00 0.01 0.01 0.01 0.00 0.00 0.00 0.00 0.00
0.00 0.00 0.00 0.00 0.00 0.00 0.00 0.00 0.00 0.00 0.01 0.01 0.00 0.00 0.00 0.00 0.00 0.00 0.00 0.00 0.00 0.00 0.00 0.01 0.01 0.01 0.00 0.00 0.01 0.01 0.02 0.02 0.01 0.01 0.01 0.00 0.00 0.00 0.00 0.00 0.01 0.01 0.02 0.02 0.01 0.02 0.01 0.01 0.00
0.00 0.00 0.00 0.00 0.00 0.00 0.00 0.00 0.00 0.00 0.01 0.01 0.00 0.00 0.01 0.01 0.00 0.00 0.00 0.00 0.00 0.00 0.00 0.01 0.01 0.01 0.01 0.01 0.02 0.02 0.03 0.03 0.02 0.02 0.01 0.01 0.01 0.01 0.01 0.01 0.02 0.02 0.03 0.03 0.03 0.03 0.03 0.02 0.01
0.00 0.00 0.00 0.00 0.00 0.00 0.00 0.00 0.00 0.00 0.01 0.01 0.00 0.00 0.01 0.01 0.01 0.00 0.00 0.00 0.00 0.00 0.00 0.01 0.01 0.01 0.01 0.02 0.02 0.03 0.03 0.03 0.03 0.03 0.02 0.02 0.02 0.02 0.02 0.02 0.03 0.04 0.03 0.03 0.03 0.03 0.03 0.03 0.02
0.00 0.00 0.00 0.00 0.00 0.00 0.00 0.00 0.00 0.00 0.00 0.01 0.00 0.00 0.01 0.01 0.01 0.00 0.00 0.00 0.00 0.00 0.01 0.01 0.01 0.01 0.01 0.02 0.03 0.03 0.03 0.04 0.04 0.03 0.03 0.02 0.02 0.03 0.03 0.03 0.04 0.05 0.05 0.03 0.03 0.03 0.04 0.04 0.03
0.00 0.00 0.00 0.00 0.00 0.00 0.00 0.00 0.00 0.01 0.00 0.00 0.00 0.00 0.01 0.01 0.00 0.00 0.01 0.01 0.01 0.01 0.01 0.01 0.02 0.03 0.03 0.03 0.03 0.03 0.04 0.04 0.04 0.03 0.02 0.02 0.03 0.03 0.03 0.03 0.02 0.03 0.05 0.05 0.05 0.05 0.06 0.06 0.04
0.00 0.00 0.00 0.00 0.00 0.00 0.00 0.00 0.00 0.00 0.00 0.00 0.00 0.00 0.00 0.01 0.01 0.01 0.01 0.01 0.01 0.01 0.01 0.01 0.02 0.02 0.03 0.04 0.03 0.03 0.04 0.06 0.05 0.05 0.05 0.05 0.06 0.06 0.06 0.04 0.03 0.03 0.05 0.06 0.07 0.08 0.10 0.10 0.07
0.00 0.00 0.00 0.00 0.00 0.00 0.00 0.00 0.00 0.01 0.02 0.01 0.01 0.01 0.01 0.01 0.01 0.01 0.01 0.00 0.00 0.01 0.01 0.02 0.02 0.03 0.04 0.04 0.05 0.07 0.09 0.12 0.11 0.11 0.11 0.13 0.15 0.14 0.11 0.08 0.06 0.05 0.07 0.08 0.09 0.08 0.08 0.10 0.10
0.00 0.00 0.00 0.00 0.00 0.00 0.00 0.00 0.00 0.01 0.03 0.03 0.02 0.02 0.01 0.01 0.02 0.01 0.01 0.01 0.01 0.01 0.02 0.03 0.02 0.04 0.07 0.11 0.12 0.15 0.20 0.21 0.20 0.18 0.18 0.23 0.23 0.21 0.20 0.19 0.15 0.12 0.09 0.09 0.11 0.11 0.10 0.13 0.15
0.00 0.00 0.00 0.00 0.00 0.00 0.00 0.00 0.00 0.00 0.01 0.01 0.02 0.03 0.03 0.02 0.03 0.03 0.04 0.04 0.04 0.04 0.06 0.07 0.08 0.08 0.10 0.13 0.16 0.21 0.23 0.25 0.23 0.16 0.13 0.17 0.21 0.21 0.21 0.24 0.23 0.16 0.13 0.12 0.13 0.13 0.13 0.13 0.14
0.00 0.00 0.00 0.00 0.00 0.00 0.00 0.00 0.00 0.00 0.00 0.00 0.00 0.01 0.02 0.02 0.02 0.03 0.05 0.06 0.06 0.08 0.09 0.11 0.11 0.10 0.11 0.12 0.14 0.17 0.16 0.15 0.14 0.09 0.08 0.09 0.13 0.15 0.16 0.16 0.15 0.12 0.12 0.11 0.12 0.10 0.10 0.10 0.11
0.00 0.00 0.00 0.00 0.00 0.00 0.00 0.00 0.00 0.00 0.00 0.01 0.01 0.01 0.02 0.02 0.03 0.04 0.06 0.07 0.08 0.09 0.09 0.10 0.10 0.09 0.09 0.09 0.08 0.08 0.06 0.05 0.05 0.05 0.05 0.05 0.06 0.08 0.10 0.10 0.09 0.09 0.09 0.08 0.07 0.07 0.06 0.07 0.07
0.00 0.00 0.00 0.00 0.00 0.00 0.00 0.01 0.01 0.01 0.01 0.01 0.01 0.02 0.03 0.03 0.03 0.06 0.09 0.08 0.07 0.08 0.09 0.10 0.10 0.07 0.05 0.04 0.03 0.02 0.01 0.01 0.01 0.01 0.01 0.01 0.02 0.03 0.04 0.05 0.06 0.06 0.05 0.04 0.04 0.04 0.03 0.03 0.02
0.00 0.00 0.00 0.00 0.00 0.00 0.01 0.03 0.02 0.01 0.02 0.02 0.03 0.03 0.04 0.04 0.05 0.07 0.06 0.05 0.04 0.04 0.05 0.04 0.03 0.02 0.01 0.01 0.01 0.00 0.00 0.00 0.00 0.00 0.00 0.00 0.01 0.01 0.01 0.02 0.02 0.02 0.01 0.02 0.02 0.01 0.01 0.01 0.01
0.00 0.00 0.00 0.00 0.00 0.00 0.01 0.03 0.02 0.02 0.03 0.03 0.03 0.04 0.05 0.05 0.06 0.06 0.04 0.03 0.02 0.02 0.02 0.02 0.01 0.00 0.00 0.00 0.00 0.00 0.00 0.00 0.00 0.00 0.00 0.00 0.00 0.00 0.01 0.01 0.01 0.01 0.01 0.01 0.01 0.00 0.01 0.01 0.01
0.00 0.00 0.00 0.00 0.00 0.00 0.01 0.03 0.04 0.05 0.06 0.07 0.06 0.06 0.06 0.05 0.05 0.03 0.02 0.01 0.01 0.01 0.01 0.00 0.00 0.00 0.00 0.00 0.00 0.00 0.00 0.00 0.00 0.00 0.00 0.00 0.00 0.00 0.00 0.01 0.01 0.00 0.00 0.00 0.01 0.01 0.01 0.01 0.01
0.00 0.00 0.00 0.00 0.00 0.00 0.01 0.02 0.04 0.06 0.10 0.10 0.09 0.08 0.07 0.05 0.03 0.02 0.01 0.00 0.00 0.00 0.00 0.00 0.00 0.00 0.00 0.00 0.00 0.00 0.00 0.00 0.00 0.00 0.00 0.00 0.00 0.00 0.00 0.00 0.01 0.00 0.00 0.00 0.00 0.00 0.00 0.01 0.02
0.00 0.00 0.00 0.00 0.00 0.00 0.01 0.02 0.03 0.06 0.10 0.10 0.08 0.07 0.05 0.03 0.02 0.01 0.00 0.00 0.00 0.00 0.00 0.00 0.00 0.00 0.00 0.00 0.00 0.00 0.00 0.00 0.00 0.00 0.00 0.00 0.00 0.00 0.00 0.00 0.00 0.00 0.01 0.01 0.01 0.01 0.00 0.00 0.01
0.00 0.00 0.00 0.00 0.00 0.01 0.01 0.02 0.02 0.03 0.04 0.05 0.04 0.04 0.03 0.03 0.02 0.01 0.01 0.00 0.00 0.00 0.00 0.00 0.00 0.00 0.00 0.00 0.00 0.00 0.00 0.00 0.00 0.00 0.00 0.00 0.00 0.00 0.00 0.00 0.00 0.00 0.00 0.00 0.01 0.01 0.01 0.00 0.01
0.00 0.00 0.00 0.00 0.00 0.00 0.01 0.02 0.01 0.02 0.04 0.03 0.02 0.03 0.03 0.02 0.01 0.00 0.00 0.00 0.00 0.00 0.00 0.00 0.00 0.00 0.00 0.00 0.00 0.00 0.00 0.00 0.00 0.00 0.00 0.00 0.00 0.00 0.00 0.00 0.00 0.00 0.00 0.00 0.00 0.00 0.01 0.01 0.00
0.00 0.00 0.00 0.00 0.00 0.00 0.00 0.00 0.00 0.00 0.01 0.01 0.01 0.01 0.01 0.01 0.00 0.00 0.00 0.00 0.00 0.00 0.00 0.00 0.01 0.01 0.00 0.00 0.00 0.00 0.00 0.00 0.00 0.00 0.00 0.00 0.00 0.00 0.00 0.00 0.00 0.00 0.00 0.00 0.00 0.00 0.00 0.01 0.01
0.00 0.00 0.00 0.00 0.00 0.01 0.00 0.00 0.00 0.00 0.00 0.00 0.00 0.00 0.00 0.00 0.00 0.00 0.00 0.00 0.00 0.00 0.00 0.00 0.01 0.01 0.00 0.00 0.00 0.00 0.00 0.00 0.00 0.00 0.00 0.00 0.00 0.00 0.00 0.00 0.00 0.00 0.00 0.00 0.00 0.00 0.00 0.01 0.01
0.00 0.00 0.00 0.00 0.00 0.01 0.00 0.00 0.00 0.00 0.00 0.00 0.00 0.00 0.00 0.00 0.00 0.00 0.00 0.00 0.00 0.00 0.00 0.00 0.00 0.00 0.00 0.00 0.00 0.00 0.00 0.00 0.00 0.00 0.00 0.00 0.00 0.00 0.00 0.00 0.00 0.00 0.00 0.00 0.00 0.00 0.00 0.01 0.01
0.00 0.00 0.00 0.00 0.00 0.00 0.00 0.00 0.00 0.00 0.00 0.00 0.00 0.00 0.00 0.00 0.00 0.00 0.00 0.00 0.00 0.00 0.00 0.00 0.00 0.00 0.00 0.00 0.00 0.00 0.00 0.00 0.00 0.00 0.00 0.00 0.00 0.00 0.00 0.00 0.00 0.00 0.00 0.00 0.00 0.00 0.00 0.00 0.00
0.00 0.00 0.00 0.00 0.00 0.00 0.00 0.00 0.00 0.00 0.00 0.00 0.00 0.00 0.00 0.00 0.00 0.00 0.00 0.00 0.00 0.00 0.00 0.00 0.00 0.00 0.00 0.00 0.00 0.00 0.00 0.00 0.00 0.00 0.00 0.00 0.00 0.00 0.00 0.00 0.00 0.00 0.00 0.00 0.00 0.00 0.00 0.00 0.00
0.00 0.00 0.00 0.00 0.00 0.00 0.00 0.00 0.00 0.00 0.00 0.00 0.00 0.00 0.00 0.00 0.00 0.00 0.00 0.00 0.00 0.00 0.00 0.00 0.00 0.00 0.00 0.00 0.00 0.00 0.00 0.00 0.00 0.00 0.00 0.00 0.00 0.00 0.00 0.00 0.00 0.00 0.00 0.00 0.00 0.00 0.00 0.00 0.00
0.00 0.00 0.00 0.00 0.00 0.00 0.00 0.00 0.00 0.00 0.00 0.00 0.00 0.00 0.00 0.00 0.00 0.00 0.00 0.00 0.00 0.00 0.00 0.00 0.00 0.00 0.00 0.00 0.00 0.00 0.00 0.00 0.00 0.00 0.00 0.00 0.00 0.00 0.00 0.00 0.00 0.00 0.00 0.00 0.00 0.00 0.00 0.00 0.00
0.00 0.00 0.00 0.00 0.00 0.00 0.00 0.00 0.00 0.00 0.00 0.00 0.00 0.00 0.00 0.00 0.00 0.00 0.00 0.00 0.00 0.00 0.00 0.00 0.00 0.00 0.00 0.00 0.00 0.00 0.00 0.00 0.00 0.00 0.00 0.00 0.00 0.00 0.00 0.00 0.00 0.00 0.00 0.00 0.00 0.00 0.00 0.00 0.00
MSLP
1012.53 1013.03 1013.50 1013.85 1013.99 1013.87 1013.52 1012.97 1012.35 1011.76 1011.32 1011.09 1011.09 1011.28 1011.59 1011.95 1012.27 1012.50 1012.64 1012.73 1012.82 1012.96 1013.20 1013.54 1013.96 1014.41 1014.82 1015.14 1015.34 1015.42 1015.43 1015.41 1015.43 1015.53 1015.72 1016.01 1016.35 1016.68 1016.97 1017.18 1017.30 1017.34 1017.34 1017.34 1017.36 1017.43 1017.54 1017.67 1017.79
1012.51 1013.04 1013.50 1013.80 1013.86 1013.65 1013.20 1012.59 1011.92 1011.34 1010.93 1010.77 1010.85 1011.14 1011.54 1011.97 1012.33 1012.58 1012.71 1012.78 1012.84 1012.95 1013.18 1013.53 1013.98 1014.47 1014.94 1015.33 1015.59 1015.74 1015.78 1015.79 1015.81 1015.89 1016.06 1016.30 1016.58 1016.85 1017.08 1017.24 1017.32 1017.34 1017.34 1017.36 1017.42 1017.54 1017.69 1017.87 1018.00
1012.64 1013.15 1013.55 1013.76 1013.72 1013.41 1012.88 1012.22 1011.55 1011.01 1010.68 1010.62 1010.82 1011.20 1011.68 1012.15 1012.52 1012.76 1012.85 1012.87 1012.88 1012.95 1013.15 1013.50 1013.97 1014.51 1015.04 1015.49 1015.83 1016.03 1016.12 1016.16 1016.18 1016.25 1016.38 1016.57 1016.79 1016.99 1017.16 1017.26 1017.30 1017.30 1017.30 1017.34 1017.44 1017.60 1017.81 1018.01 1018.17
1012.87 1013.33 1013.64 1013.73 1013.57 1013.17 1012.58 1011.90 1011.27 1010.81 1010.59 1010.65 1010.96 1011.44 1011.98 1012.47 1012.83 1013.02 1013.06 1013.02 1012.96 1013.00 1013.17 1013.51 1014.00 1014.57 1015.14 1015.64 1016.02 1016.27 1016.40 1016.46 1016.50 1016.55 1016.65 1016.79 1016.94 1017.08 1017.18 1017.23 1017.23 1017.22 1017.23 1017.29 1017.42 1017.62 1017.86 1018.08 1018.25
1013.17 1013.53 1013.73 1013.69 1013.42 1012.93 1012.30 1011.65 1011.09 1010.74 1010.65 1010.84 1011.25 1011.81 1012.39 1012.88 1013.21 1013.35 1013.33 1013.22 1013.12 1013.11 1013.26 1013.60 1014.08 1014.66 1015.24 1015.77 1016.17 1016.44 1016.59 1016.65 1016.69 1016.73 1016.80 1016.90 1017.01 1017.10 1017.15 1017.16 1017.14 1017.11 1017.13 1017.20 1017.36 1017.58 1017.83 1018.06 1018.22
1013.46 1013.71 1013.78 1013.62 1013.25 1012.70 1012.07 1011.47 1011.00 1010.77 1010.81 1011.12 1011.63 1012.23 1012.83 1013.30 1013.60 1013.69 1013.62 1013.47 1013.34 1013.31 1013.45 1013.77 1014.24 1014.80 1015.37 1015.87 1016.25 1016.51 1016.65 1016.71 1016.74 1016.77 1016.83 1016.90 1016.98 1017.03 1017.05 1017.03 1016.99 1016.96 1016.98 1017.07 1017.24 1017.46 1017.71 1017.93 1018.07
1013.68 1013.83 1013.77 1013.51 1013.06 1012.49 1011.89 1011.36 1011.00 1010.89 1011.05 1011.45 1012.01 1012.64 1013.23 1013.69 1013.94 1014.00 1013.92 1013.76 1013.63 1013.61 1013.74 1014.04 1014.49 1015.00 1015.51 1015.95 1016.28 1016.49 1016.60 1016.64 1016.66 1016.68 1016.72 1016.78 1016.84 1016.88 1016.87 1016.84 1016.79 1016.77 1016.79 1016.88 1017.05 1017.27 1017.50 1017.70 1017.82
1013.80 1013.84 1013.69 1013.36 1012.87 1012.32 1011.77 1011.32 1011.07 1011.06 1011.31 1011.76 1012.36 1012.99 1013.56 1013.98 1014.22 1014.27 1014.20 1014.07 1013.97 1013.97 1014.12 1014.40 1014.80 1015.24 1015.67 1016.02 1016.27 1016.41 1016.46 1016.47 1016.47 1016.49 1016.53 1016.59 1016.64 1016.67 1016.66 1016.61 1016.56 1016.53 1016.56 1016.65 1016.82 1017.02 1017.23 1017.40 1017.48
1013.81 1013.77 1013.56 1013.19 1012.71 1012.19 1011.72 1011.36 1011.20 1011.28 1011.57 1012.05 1012.64 1013.25 1013.78 1014.18 1014.42 1014.49 1014.46 1014.39 1014.35 1014.40 1014.56 1014.83 1015.18 1015.53 1015.85 1016.10 1016.24 1016.30 1016.30 1016.28 1016.26 1016.28 1016.32 1016.38 1016.43 1016.44 1016.42 1016.37 1016.32 1016.29 1016.31 1016.40 1016.56 1016.74 1016.93 1017.06 1017.12
1013.74 1013.64 1013.40 1013.03 1012.59 1012.14 1011.75 1011.49 1011.40 1011.53 1011.85 1012.32 1012.87 1013.43 1013.93 1014.31 1014.55 1014.68 1014.71 1014.73 1014.77 1014.87 1015.06 1015.31 1015.59 1015.86 1016.07 1016.20 1016.24 1016.22 1016.17 1016.12 1016.09 1016.11 1016.15 1016.21 1016.25 1016.26 1016.22 1016.16 1016.09 1016.05 1016.07 1016.16 1016.30 1016.47 1016.63 1016.74 1016.76
1013.61 1013.50 1013.26 1012.93 1012.56 1012.19 1011.89 1011.71 1011.68 1011.83 1012.14 1012.58 1013.07 1013.58 1014.04 1014.41 1014.67 1014.85 1014.97 1015.08 1015.20 1015.36 1015.57 1015.80 1016.02 1016.21 1016.32 1016.35 1016.31 1016.22 1016.13 1016.06 1016.03 1016.04 1016.09 1016.14 1016.16 1016.15 1016.09 1016.00 1015.91 1015.86 1015.87 1015.95 1016.08 1016.24 1016.38 1016.45 1016.44
1013.49 1013.38 1013.17 1012.90 1012.61 1012.34 1012.13 1012.03 1012.04 1012.20 1012.49 1012.87 1013.31 1013.75 1014.17 1014.52 1014.82 1015.05 1015.25 1015.44 1015.63 1015.85 1016.07 1016.28 1016.45 1016.56 1016.59 1016.55 1016.45 1016.33 1016.21 1016.14 1016.11 1016.13 1016.16 1016.19 1016.19 1016.14 1016.05 1015.93 1015.81 1015.74 1015.73 1015.80 1015.92 1016.06 1016.18 1016.23 1016.19
1013.40 1013.31 1013.16 1012.96 1012.77 1012.60 1012.48 1012.44 1012.50 1012.66 1012.91 1013.23 1013.60 1013.99 1014.36 1014.71 1015.02 1015.29 1015.55 1015.80 1016.05 1016.29 1016.52 1016.71 1016.84 1016.90 1016.88 1016.80 1016.67 1016.54 1016.43 1016.36 1016.33 1016.35 1016.37 1016.38 1016.34 1016.24 1016.10 1015.94 1015.79 1015.69 1015.67 1015.71 1015.82 1015.94 1016.04 1016.07 1016.00
1013.36 1013.31 1013.22 1013.11 1013.01 1012.94 1012.91 1012.93 1013.02 1013.18 1013.41 1013.68 1013.99 1014.32 1014.65 1014.98 1015.28 1015.58 1015.86 1016.14 1016.40 1016.66 1016.88 1017.05 1017.16 1017.20 1017.16 1017.08 1016.96 1016.84 1016.75 1016.69 1016.68 1016.68 1016.68 1016.65 1016.56 1016.42 1016.23 1016.02 1015.84 1015.71 1015.66 1015.69 1015.77 1015.88 1015.95 1015.94 1015.84
1013.38 1013.36 1013.33 1013.31 1013.30 1013.33 1013.38 1013.47 1013.60 1013.76 1013.97 1014.20 1014.46 1014.74 1015.03 1015.32 1015.60 1015.88 1016.16 1016.43 1016.68 1016.92 1017.13 1017.29 1017.39 1017.43 1017.41 1017.35 1017.27 1017.19 1017.12 1017.09 1017.07 1017.06 1017.02 1016.95 1016.81 1016.62 1016.39 1016.15 1015.93 1015.78 1015.70 1015.71 1015.77 1015.84 1015.88 1015.85 1015.71
1013.42 1013.43 1013.47 1013.52 1013.61 1013.72 1013.86 1014.01 1014.17 1014.35 1014.54 1014.75 1014.97 1015.21 1015.45 1015.69 1015.93 1016.17 1016.40 1016.63 1016.85 1017.06 1017.24 1017.39 1017.50 1017.57 1017.59 1017.58 1017.56 1017.52 1017.49 1017.47 1017.45 1017.41 1017.34 1017.22 1017.04 1016.81 1016.55 1016.28 1016.05 1015.88 1015.78 1015.76 1015.78 1015.82 1015.82 1015.75 1015.58
1013.45 1013.50 1013.59 1013.72 1013.89 1014.08 1014.29 1014.49 1014.69 1014.89 1015.08 1015.26 1015.45 1015.64 1015.83 1016.02 1016.21 1016.38 1016.55 1016.72 1016.89 1017.05 1017.21 1017.37 1017.50 1017.61 1017.69 1017.75 1017.78 1017.80 1017.80 1017.78 1017.75 1017.68 1017.57 1017.42 1017.21 1016.96 1016.68 1016.41 1016.18 1016.00 1015.88 1015.83 1015.82 1015.82 1015.77 1015.66 1015.45
1013.43 1013.52 1013.67 1013.87 1014.11 1014.38 1014.64 1014.89 1015.12 1015.32 1015.50 1015.67 1015.83 1015.98 1016.12 1016.25 1016.37 1016.48 1016.58 1016.68 1016.79 1016.92 1017.06 1017.22 1017.38 1017.55 1017.70 1017.83 1017.92 1017.98 1018.01 1018.00 1017.94 1017.84 1017.70 1017.52 1017.29 1017.04 1016.78 1016.53 1016.31 1016.13 1016.01 1015.94 1015.89 1015.83 1015.74 1015.58 1015.34
1013.35 1013.49 1013.70 1013.97 1014.28 1014.60 1014.91 1015.18 1015.41 1015.60 1015.76 1015.90 1016.02 1016.13 1016.22 1016.30 1016.37 1016.42 1016.46 1016.50 1016.57 1016.66 1016.79 1016.97 1017.17 1017.40 1017.62 1017.81 1017.97 1018.07 1018.11 1018.09 1018.02 1017.89 1017.73 1017.53 1017.31 1017.08 1016.85 1016.64 1016.45 1016.29 1016.17 1016.07 1015.98 1015.88 1015.74 1015.54 1015.26
1013.21 1013.41 1013.69 1014.03 1014.40 1014.75 1015.08 1015.34 1015.55 1015.70 1015.82 1015.91 1015.98 1016.05 1016.10 1016.15 1016.17 1016.18 1016.19 1016.20 1016.24 1016.32 1016.46 1016.65 1016.90 1017.18 1017.46 1017.72 1017.92 1018.05 1018.10 1018.08 1017.99 1017.85 1017.67 1017.48 1017.28 1017.08 1016.90 1016.74 1016.59 1016.47 1016.35 1016.23 1016.11 1015.96 1015.78 1015.54 1015.24
1013.04 1013.32 1013.67 1014.08 1014.49 1014.87 1015.17 1015.40 1015.54 1015.62 1015.66 1015.68 1015.69 1015.71 1015.74 1015.76 1015.78 1015.78 1015.78 1015.79 1015.83 1015.93 1016.08 1016.31 1016.60 1016.92 1017.25 1017.55 1017.79 1017.95 1018.01 1017.99 1017.89 1017.74 1017.57 1017.39 1017.22 1017.08 1016.95 1016.85 1016.75 1016.65 1016.54 1016.41 1016.26 1016.08 1015.86 1015.59 1015.27
1012.88 1013.25 1013.69 1014.15 1014.59 1014.95 1015.22 1015.36 1015.41 1015.37 1015.30 1015.22 1015.17 1015.15 1015.15 1015.18 1015.21 1015.25 1015.28 1015.32 1015.40 1015.52 1015.71 1015.96 1016.29 1016.65 1017.01 1017.34 1017.61 1017.78 1017.86 1017.83 1017.74 1017.60 1017.44 1017.29 1017.16 1017.06 1016.99 1016.94 1016.88 1016.81 1016.71 1016.58 1016.40 1016.20 1015.95 1015.67 1015.35
1012.77 1013.23 1013.74 1014.26 1014.71 1015.04 1015.22 1015.26 1015.17 1015.00 1014.80 1014.61 1014.47 1014.41 1014.41 1014.46 1014.54 1014.63 1014.73 1014.84 1014.97 1015.13 1015.36 1015.64 1015.99 1016.37 1016.75 1017.09 1017.38 1017.56 1017.65 1017.64 1017.56 1017.44 1017.30 1017.18 1017.08 1017.03 1017.00 1016.98 1016.96 1016.91 1016.82 1016.68 1016.49 1016.27 1016.02 1015.74 1015.43
1012.72 1013.26 1013.85 1014.39 1014.83 1015.11 1015.20 1015.11 1014.87 1014.54 1014.20 1013.90 1013.68 1013.58 1013.58 1013.67 1013.82 1014.00 1014.18 1014.37 1014.57 1014.79 1015.05 1015.35 1015.71 1016.09 1016.47 1016.82 1017.11 1017.31 1017.41 1017.42 1017.36 1017.25 1017.14 1017.04 1016.98 1016.95 1016.95 1016.95 1016.94 1016.90 1016.81 1016.67 1016.49 1016.26 1016.01 1015.75 1015.47
1012.74 1013.34 1013.97 1014.53 1014.95 1015.16 1015.14 1014.92 1014.53 1014.05 1013.57 1013.16 1012.88 1012.74 1012.76 1012.90 1013.13 1013.40 1013.69 1013.96 1014.23 1014.50 1014.79 1015.10 1015.45 1015.82 1016.18 1016.52 1016.80 1017.01 1017.12 1017.15 1017.11 1017.03 1016.94 1016.86 1016.81 1016.79 1016.80 1016.81 1016.80 1016.75 1016.67 1016.53 1016.35 1016.14 1015.90 1015.66 1015.42
1012.79 1013.43 1014.07 1014.62 1015.00 1015.13 1015.02 1014.67 1014.15 1013.55 1012.96 1012.46 1012.13 1011.99 1012.03 1012.22 1012.53 1012.89 1013.27 1013.63 1013.96 1014.27 1014.57 1014.88 1015.21 1015.54 1015.88 1016.20 1016.46 1016.66 1016.79 1016.83 1016.81 1016.75 1016.67 1016.61 1016.56 1016.54 1016.53 1016.53 1016.51 1016.46 1016.37 1016.24 1016.07 1015.87 1015.67 1015.46 1015.25
1012.83 1013.47 1014.10 1014.61 1014.93 1015.00 1014.80 1014.36 1013.75 1013.06 1012.40 1011.86 1011.50 1011.36 1011.43 1011.68 1012.05 1012.49 1012.94 1013.37 1013.75 1014.08 1014.39 1014.68 1014.97 1015.27 1015.56 1015.84 1016.09 1016.28 1016.40 1016.45 1016.44 1016.39 1016.33 1016.26 1016.20 1016.17 1016.15 1016.13 1016.10 1016.04 1015.95 1015.83 1015.67 1015.50 1015.31 1015.13 1014.95
1012.83 1013.43 1014.01 1014.46 1014.72 1014.72 1014.46 1013.97 1013.32 1012.59 1011.91 1011.36 1011.01 1010.89 1010.99 1011.28 1011.71 1012.21 1012.70 1013.17 1013.57 1013.91 1014.21 1014.47 1014.72 1014.97 1015.22 1015.46 1015.68 1015.85 1015.96 1016.01 1016.01 1015.96 1015.89 1015.82 1015.76 1015.71 1015.67 1015.64 1015.60 1015.54 1015.45 1015.33 1015.19 1015.04 1014.88 1014.71 1014.56
1012.74 1013.27 1013.77 1014.15 1014.33 1014.29 1013.99 1013.49 1012.84 1012.13 1011.48 1010.96 1010.65 1010.56 1010.70 1011.03 1011.48 1012.00 1012.52 1013.00 1013.40 1013.74 1014.01 1014.24 1014.46 1014.66 1014.87 1015.06 1015.24 1015.39 1015.48 1015.52 1015.52 1015.47 1015.40 1015.32 1015.25 1015.19 1015.14 1015.10 1015.06 1015.00 1014.92 1014.82 1014.69 1014.55 1014.40 1014.24 1014.09
1012.59 1013.01 1013.40 1013.68 1013.79 1013.70 1013.40 1012.91 1012.31 1011.67 1011.08 1010.64 1010.38 1010.34 1010.51 1010.85 1011.32 1011.83 1012.35 1012.81 1013.20 1013.52 1013.77 1013.98 1014.16 1014.33 1014.49 1014.66 1014.80 1014.92 1014.99 1015.02 1014.99 1014.94 1014.86 1014.78 1014.71 1014.65 1014.61 1014.58 1014.54 1014.50 1014.43 1014.34 1014.22 1014.07 1013.92 1013.75 1013.59
Thickness
5821 5824 5826 5820 5811 5814 5816 5822 5829 5832 5834 5840 5842 5838 5830 5821 5815 5801 5819 5828 5823 5818 5809 5801 5798 5795 5793 5791 5789 5787 5785 5783 5780 5778 5776 5773 5771 5769 5767 5765 5763 5761 5760 5758 5757 5756 5755 5754 5753
5827 5827 5821 5816 5812 5812 5812 5824 5826 5830 5836 5841 5839 5835 5827 5816 5817 5813 5818 5821 5819 5815 5807 5801 5794 5792 5790 5788 5786 5784 5781 5779 5777 5774 5772 5770 5767 5766 5764 5762 5761 5759 5758 5756 5755 5754 5753 5752 5751
5826 5825 5816 5816 5814 5809 5810 5823 5827 5835 5841 5838 5831 5830 5822 5810 5813 5814 5818 5819 5817 5811 5805 5796 5791 5788 5786 5784 5782 5780 5778 5775 5773 5770 5768 5766 5764 5762 5761 5760 5758 5757 5756 5755 5753 5752 5751 5750 5749
5822 5817 5815 5811 5810 5815 5816 5825 5831 5832 5835 5836 5831 5818 5814 5808 5814 5816 5817 5817 5814 5807 5802 5793 5787 5784 5781 5779 5777 5775 5773 5771 5769 5767 5764 5763 5761 5759 5758 5757 5756 5755 5754 5753 5751 5750 5749 5747 5746
5821 5814 5807 5807 5809 5816 5824 5829 5834 5829 5828 5829 5828 5811 5802 5803 5812 5812 5813 5813 5809 5806 5800 5790 5783 5780 5777 5774 5772 5770 5768 5766 5764 5763 5761 5759 5758 5757 5756 5755 5754 5753 5752 5751 5749 5748 5747 5745 5744
5811 5809 5800 5802 5803 5813 5823 5831 5832 5826 5823 5824 5822 5809 5797 5801 5803 5805 5808 5808 5808 5803 5797 5786 5779 5776 5773 5770 5768 5766 5764 5762 5761 5759 5757 5756 5755 5754 5753 5752 5751 5750 5749 5748 5747 5746 5745 5743 5742
5803 5799 5797 5797 5796 5803 5815 5828 5825 5821 5816 5817 5821 5806 5796 5797 5799 5801 5801 5803 5803 5799 5793 5785 5780 5773 5768 5766 5764 5762 5760 5758 5757 5755 5754 5753 5752 5751 5750 5750 5749 5748 5747 5746 5745 5744 5743 5741 5740
5803 5796 5792 5794 5791 5796 5814 5820 5819 5818 5811 5819 5821 5805 5795 5795 5797 5796 5794 5794 5793 5790 5787 5781 5779 5774 5769 5764 5759 5757 5755 5754 5753 5751 5750 5750 5749 5748 5747 5747 5746 5745 5745 5744 5743 5742 5741 5739 5738
5793 5783 5784 5789 5787 5795 5809 5809 5810 5817 5812 5811 5812 5812 5807 5798 5794 5789 5786 5784 5781 5780 5779 5777 5773 5767 5764 5762 5757 5754 5752 5750 5749 5748 5747 5745 5747 5748 5746 5745 5743 5742 5741 5741 5740 5739 5738 5737 5736
5781 5774 5782 5790 5793 5795 5798 5801 5804 5806 5801 5796 5794 5796 5797 5791 5788 5784 5781 5776 5774 5771 5769 5767 5765 5761 5758 5756 5752 5750 5748 5746 5745 5745 5744 5743 5742 5741 5742 5740 5739 5738 5738 5737 5737 5737 5736 5735 5737
5774 5773 5781 5787 5792 5794 5794 5796 5803 5800 5792 5792 5786 5783 5786 5784 5783 5781 5778 5775 5771 5767 5763 5761 5758 5753 5751 5748 5745 5743 5742 5740 5740 5739 5738 5738 5737 5737 5737 5736 5735 5735 5735 5736 5736 5736 5736 5736 5736
5768 5772 5775 5780 5788 5788 5789 5792 5793 5791 5788 5790 5788 5784 5780 5777 5776 5775 5771 5767 5764 5759 5755 5754 5751 5747 5744 5742 5740 5738 5738 5736 5735 5734 5733 5734 5735 5734 5733 5732 5732 5732 5733 5732 5732 5733 5733 5732 5732
5763 5768 5773 5779 5783 5785 5785 5784 5782 5776 5781 5784 5780 5776 5774 5771 5769 5768 5765 5761 5757 5753 5749 5747 5744 5741 5738 5736 5735 5734 5732 5732 5731 5729 5729 5728 5731 5731 5730 5729 5728 5729 5729 5728 5728 5728 5728 5728 5728
5769 5769 5770 5774 5776 5777 5774 5773 5774 5766 5773 5771 5768 5765 5765 5763 5761 5758 5755 5752 5749 5746 5743 5741 5738 5736 5733 5732 5730 5729 5729 5726 5726 5725 5723 5722 5724 5725 5724 5724 5723 5723 5723 5723 5722 5723 5723 5724 5725
5771 5764 5764 5768 5770 5771 5771 5761 5761 5762 5764 5760 5758 5756 5755 5754 5754 5751 5750 5747 5744 5741 5738 5736 5734 5732 5729 5728 5726 5724 5723 5721 5720 5718 5717 5716 5717 5717 5718 5719 5719 5718 5717 5716 5716 5717 5718 5719 5721
5768 5762 5758 5762 5766 5767 5762 5751 5752 5757 5756 5751 5750 5748 5746 5746 5747 5746 5744 5742 5740 5737 5733 5732 5733 5728 5724 5721 5719 5719 5716 5714 5713 5711 5710 5709 5708 5709 5710 5713 5714 5711 5712 5713 5713 5713 5714 5714 5715
5763 5758 5757 5755 5762 5762 5757 5749 5749 5752 5749 5744 5743 5741 5739 5738 5739 5739 5738 5737 5735 5732 5729 5727 5725 5723 5720 5716 5714 5712 5709 5707 5707 5706 5704 5701 5701 5702 5703 5705 5705 5704 5706 5707 5707 5709 5707 5707 5708
5758 5759 5754 5751 5755 5755 5749 5745 5744 5743 5741 5738 5736 5735 5733 5731 5732 5734 5734 5734 5731 5728 5726 5723 5720 5717 5715 5713 5710 5708 5706 5705 5703 5701 5696 5694 5695 5694 5695 5698 5697 5698 5700 5700 5699 5698 5698 5699 5701
5765 5758 5752 5750 5753 5749 5742 5738 5736 5735 5732 5729 5727 5726 5725 5727 5731 5731 5730 5730 5728 5725 5722 5719 5716 5713 5710 5709 5706 5704 5702 5699 5698 5695 5690 5688 5687 5687 5687 5690 5690 5690 5693 5692 5693 5693 5694 5694 5697
5762 5755 5752 5747 5748 5745 5738 5733 5732 5730 5726 5726 5723 5721 5723 5725 5727 5726 5727 5727 5726 5722 5720 5717 5713 5711 5708 5705 5701 5697 5694 5693 5691 5688 5684 5682 5681 5680 5684 5681 5683 5685 5684 5684 5685 5685 5686 5689 5691
5762 5758 5754 5746 5742 5742 5737 5728 5727 5728 5727 5725 5724 5724 5726 5726 5726 5725 5725 5726 5725 5722 5720 5718 5714 5710 5706 5701 5699 5695 5691 5690 5690 5686 5683 5679 5676 5675 5674 5674 5675 5676 5678 5681 5678 5678 5678 5680 5684
5759 5765 5758 5749 5742 5741 5739 5727 5728 5730 5725 5723 5725 5727 5728 5729 5729 5728 5727 5727 5726 5725 5723 5718 5713 5708 5704 5699 5696 5692 5688 5685 5683 5680 5679 5675 5673 5671 5670 5670 5669 5669 5672 5672 5672 5676 5673 5671 5675
5763 5766 5760 5754 5749 5743 5742 5737 5733 5736 5729 5731 5733 5734 5734 5734 5733 5731 5731 5731 5730 5728 5724 5720 5713 5707 5702 5698 5694 5689 5687 5685 5683 5679 5676 5672 5673 5669 5668 5666 5665 5664 5665 5665 5663 5664 5664 5666 5667
5766 5761 5756 5756 5756 5736 5735 5735 5731 5742 5740 5741 5741 5741 5739 5738 5737 5736 5735 5734 5731 5728 5724 5719 5712 5706 5702 5697 5693 5687 5684 5680 5677 5674 5673 5673 5673 5670 5667 5663 5661 5660 5660 5658 5657 5656 5658 5657 5657
5764 5755 5747 5743 5740 5735 5737 5736 5739 5749 5752 5750 5747 5745 5744 5742 5740 5738 5735 5733 5730 5727 5723 5719 5712 5706 5702 5697 5692 5688 5683 5679 5675 5673 5673 5669 5670 5669 5665 5661 5657 5656 5654 5652 5651 5650 5650 5650 5648
5763 5760 5740 5727 5732 5740 5738 5736 5749 5758 5758 5756 5755 5752 5748 5746 5745 5743 5740 5736 5731 5727 5723 5718 5712 5706 5701 5697 5692 5687 5683 5681 5679 5675 5670 5668 5666 5665 5660 5656 5653 5651 5649 5648 5646 5645 5645 5643 5641
5762 5762 5766 5750 5743 5737 5741 5745 5756 5759 5755 5755 5754 5752 5750 5749 5748 5745 5742 5738 5733 5728 5723 5718 5712 5706 5701 5697 5692 5686 5682 5679 5676 5672 5668 5667 5664 5661 5657 5653 5650 5647 5644 5642 5639 5640 5636 5635 5634
5771 5765 5756 5748 5728 5729 5736 5739 5745 5751 5753 5755 5754 5753 5753 5751 5749 5746 5742 5738 5734 5729 5723 5718 5711 5705 5701 5696 5691 5688 5683 5678 5673 5670 5667 5663 5659 5656 5652 5649 5646 5643 5640 5637 5633 5632 5632 5627 5625
5757 5755 5754 5753 5745 5730 5729 5743 5765 5761 5762 5760 5759 5759 5757 5754 5751 5747 5742 5739 5734 5728 5722 5715 5709 5703 5699 5694 5689 5684 5680 5677 5673 5668 5664 5661 5657 5652 5649 5645 5642 5638 5635 5632 5628 5626 5623 5620 5618
5767 5761 5754 5740 5737 5739 5736 5748 5773 5771 5769 5766 5765 5764 5761 5756 5753 5748 5742 5736 5731 5726 5721 5715 5709 5703 5698 5693 5688 5682 5678 5674 5670 5667 5663 5658 5653 5649 5646 5641 5637 5633 5630 5626 5621 5618 5616 5613 5610